Погода Шамары

Погода Шамары : погода сейчас, прогноз погоды и архив. Всё, что Вы хотите узнать о погоде Шамары!

Поиск расширенной информации на нашем сайте:

Другие новости

Новости СМИ2

Главная страница сайта

Новости сайта

03.07.2017

Напоминаем, что на нашем специализированном сайте Метеоцентр.Азия вы можете получить высокодетализированные автоматические прогнозы погоды по пунктам России, СНГ и мира в авиационном формате (включающие направление и скорость ветра, видимость, явления погоды, количество и форму облачности, нижнюю и верхнюю границу облачности).


Погода Шамары - сегодня

Время (UTC), дата Ветер
(°,м/с) 
Видим.   Явления Облачность Т
(°С)
Тd
(°С)
f(%) Тe
(°С)
Pmin
(гПа)
dP
(гПа)
Po
(мм)
O2
(г/м3)
Тmin Tmax R s Состояние
почвы
06 15.08.18 330 (СЗ) 20000 м  {ливн. осадки}  8/8 300 м кучево-дожд., верхняя 
[Cb calv|Cs]
+16.7 +12 74 +21  1011  0.5  737  277           
12 15.08.18 340 (С) 20000 м  {ливн. осадки}  5/4 300 м кучево-дожд., верхняя 
[Cb calv|Ci sp]
+20.3 +8.8 48 +20  1012.1  0.6  738  275           
18 15.08.18 210 (ЮЗ) 10 км    4/3 600 м верхняя 
[Cu Sc|Ci fib]
+11.9 +9.9 88 +14  1015  0.8  739  284           
21 15.08.18 тихо ()   4000 м  туман поземный  ясно 
+8.7 +7.3 91 +9  1015.6  0.2  739  287           
00 16.08.18 240 (ЮЗ) 0500 м  туман  1/1 300 м 
[Cu hum]
+7.4 +6.3 93 +8  1016  0.3  740  289           
03 16.08.18 230 (ЮЗ) 4000 м  в посл. час туман  4/0 средняя, верхняя 
[Ac lent|Cs]
+11.2 +9.4 89 +13  1015.8  0.3  740  285  +7        сухая 
06 16.08.18 200 (Ю) 20000 м  {туман}  8/3 300 м средняя, верхняя 
[Cu med, cong|Ac cast|Cs]
+19.1 +9.9 55 +21  1013.8  -1.2  739  276           
09 16.08.18 тихо ()   10 км  слаб. ливневой дождь  10/10 300 м кучево-дожд. 
[Cb calv]
+16.8 +4.3 43 +17  1012.8  -1.2  738  279           
12 16.08.18 220 (ЮЗ) 20000 м  {ливн. осадки}  10/10 300 м кучево-дожд. 
[Cb calv]
+18.1 +13.5 74 +26  1009.6  -2.8  736  275           
15 16.08.18 220 (ЮЗ) 20000 м    9/4 300 м средняя, верхняя 
[Cu Sc|Ac cast|Cs]
+18.1 +13.2 73 +25  1008.9  -0.7  735  275    +19.1     
18 16.08.18 240 (ЮЗ) 10 км    9/8 300 м кучево-дожд., средняя, верхняя 
[Cb calv|Ac trans|Ci sp]
+15.6 +13.5 87 +24  1008  -1.1  734  277           
21 16.08.18 230 (ЮЗ) 10 км  {ливн. осадки}  8/8 300 м кучево-дожд. 
[Cb calv]
+16.8 +14.6 87 +26  1007.3  -0.6  734  275           
03 17.08.18 300 (СЗ) 3{10}  10 км  слаб. морось  10/10 300 м 
[Frnb|Ns]
+12.5 +10.5 88 +14  1011.2  1.8  736  282  +12.5    0.3    влажная 
18 17.08.18 330 (СЗ) 10 км    1/0 средняя 
[Ac lent]
+9.3 +6.3 81 +10  1017.5  0.4  741  288           
21 17.08.18 290 (З) 10 км    ясно 
+8 +5.8 86 +9  1017.5  0.1  741  289           
00 18.08.18 310 (СЗ) 20000 м    10/10 300 м кучево-дожд. 
[Cb calv]
+8 +6.2 88 +9  1018.4  0.9  741  289           
06 18.08.18 320 (СЗ) 20000 м    10/10 300 м кучево-дожд. 
[Cb calv]
+10.3 +7 80 +11  1020.3  743  287           
09 18.08.18 350 (С) 20000 м    8/8 300 м кучево-дожд. 
[Cb calv]
+14.3 +6.6 60 +15  1019.3  -0.6  742  283           
12 18.08.18 290 (З) 20000 м    5/5 300 м кучево-дожд. 
[Cb calv]
+16.1 +5.7 50 +16  1018.9  -0.2  742  282           
18 18.08.18 тихо ()   10 км    5/3 300 м кучево-дожд., верхняя 
[Cb calv|Ci fib]
+8.6 +6.2 85 +9  1021.3  0.5  743  289           
21 18.08.18 210 (ЮЗ) 4000 м  туман поземный  1/0 верхняя 
[Ci fib]
+5.3 +3.9 91 +6  1021.8  0.2  744  293           
00 19.08.18 тихо ()   0200 м  туман  4/3 300 м верхняя 
[Cu Sc|Ci fib]
+3.1 +2 92 +3  1022.6  0.5  744  296           
03 19.08.18 240 (ЮЗ) 0500 м  туман  9/9 300 м кучево-дожд. 
[Cb calv]
+5.3 +4.2 93 +6  1022.9  0.5  744  294  +2.6        сухая 
06 19.08.18 260 (З) 20000 м  {туман}  3/3 300 м средняя 
[Sc diur, vesp|Ac cast]
+14 +7.6 65 +15  1021.4  -0.5  744  284           
09 19.08.18 020 (С) 20000 м    8/8 300 м кучево-дожд. 
[Cb calv]
+16.3 +6.6 53 +17  1019.9  -1.2  743  281           
Время (UTC), дата Ветер
(°,м/с) 
Видим.   Явления Облачность Т
(°С)
Тd
(°С)
f(%) Тe
(°С)
Pmin
(гПа)
dP
(гПа)
Po
(мм)
O2
(г/м3)
Тmin Tmax R s Состояние
почвы

Для получения пояснительной информации подведите курсор к названию столбца.

ПОГОДА Шамары - архив

Всё, что Вы хотите узнать о погоде Шамары - удобно и подробно!

Выберите нужную дату (начиная с 1 января 2015* года) и нажмите кнопку "Найти".
Будут отображены архивные сводки погоды по пункту Шамары, начиная с указанной даты.


Отображать данные в формате CSV (для использования в таблицах Excel)


Внимание! Наш архив погоды предназначен исключительно для личного некоммерческого использования в познавательных целях. Если Вам необходимы официальные справки о состоянии погоды (для производственных, юридических, коммерческих и т.п. целей), обращайтесь в органы Росгидромета.

*Примечание: данная дата относится к архиву по метеостанциям СССР (Россия, СНГ, Балтия).
Архив по метеостанциям Зарубежной Европы и Азии (кроме Китая) хранится 10 дней, по другим регионам земного шара (Китай, Африка, Америка, Австралия, Океания) - 1 день.

Шамары - район местоположения метеостанции


Название, широта, долгота, высота метеостанции:
Шамары 57.3°ш. 58.2°д. 244 м над ур. моря [Российская Федерация]

Дополнительная информация

В oтличие oт бoльшинства пoгoдных сайтoв мы публикуем пoдрoбную метеoинфoрмацию в детальнoм прoфессиoнальнoм фoрмате.

Характеристики температуры и влажнoсти вoздуха измеряются на высoте 2 м в тени вдали oт зданий и деревьев.
Скoрoсть ветра измеряется на высoте 10 м (на урoвне рoста челoвека скoрoсть ветра ниже в 1.5-2 раза). Если метеoстанция нахoдится в гoрoде или в лесу, тo скoрoсть ветра занижена на 2-4 м/с пo сравнению с oткрытым местoм. Скoрoсть ветра над акватoриями крупных рек и oзёр, а также на вершинах хoлмoв на 2-5 м/с выше, чем в oбычных услoвиях.
Атмoсфернoе давление в разных тoчках местнoсти мoжет значительнo oтличаться oт давления на метеoстанции, в зависимoсти oт услoвий рельефа (при пoдъёме на 10 м давление пoнижается примернo на 1 мм рт.ст.).